Weather History for LIRM - November, 2012

Change the Weather History Date:

Tuesday, November 6, 2012

  Actual Average (LIRN) Record (LIRN)
Temperature  
Mean Temperature 59 °F -  
Max Temperature 68 °F 62 °F 79 °F (2014)
Min Temperature 50 °F 44 °F 44 °F (2006)
Degree Days  
Heating Degree Days 6    
Growing Degree Days 9 (Base 50)    
Moisture  
Dew Point 53 °F    
Average Humidity 80    
Maximum Humidity 100    
Minimum Humidity 53    
Precipitation  
Precipitation 0.00 in 0.17 in - ()
Sea Level Pressure  
Sea Level Pressure 30.02 in    
Wind  
Wind Speed 5 mph ()    
Max Wind Speed 14 mph    
Max Gust Speed -    
Visibility 7.1 miles    
Events      
Averages and records for this station are not official NWS values.
T = Trace of Precipitation, MM = Missing Value Source: Averaged Metar Reports

Daily Weather History Graph

Daily Weather History Graph

Search for Another Location

Airport or City:

Trip Planner

Search our weather history database for the weather conditions in past years. The results will help you decide how hot, cold, wet, or windy it might be!

Date:

Astronomy

Nov. 06, 2012 Rise Set
Actual Time 6:40 AM CET 4:53 PM CET
Civil Twilight 6:11 AM CET 5:22 PM CET
Nautical Twilight 5:39 AM CET 5:54 PM CET
Astronomical Twilight 5:06 AM CET 6:27 PM CET
Moon 11:14 PM CET (11/6) 12:23 PM CET (11/6)
Length of Visible Light 11h 10m
Length of Day
10h 12m
Waning Gibbous, 56% of the Moon is Illuminated
Nov 6
Waning Gibbous
Nov 7
Last Quarter
Nov 13
New
Nov 20
First Quarter
Nov 28
Full

Hourly Weather History & Observations

Time (CET) Temp. Dew Point Humidity Pressure Visibility Wind Dir Wind Speed Gust Speed Precip Events Conditions
12:55 AM 59.0 °F 51.8 °F 77% 29.95 in 6.2 mi West 6.9 mph - N/A   Partly Cloudy
1:00 AM 59 °F 52 °F 71% 29.95 in 7 mi West 6.9 mph - -  
1:55 AM 59.0 °F 53.6 °F 82% 29.95 in 6.2 mi West 12.7 mph - N/A   Partly Cloudy
2:55 AM 59.0 °F 53.6 °F 82% 29.95 in 6.2 mi West 10.4 mph - N/A   Partly Cloudy
3:55 AM 55.4 °F 53.6 °F 94% 29.95 in 6.2 mi NNE 2.3 mph - N/A   Partly Cloudy
4:00 AM 56 °F 53 °F 86% 29.96 in 7 mi NNE 2.3 mph - -   Scattered Clouds
4:55 AM 55.4 °F 51.8 °F 88% 29.95 in - West 2.3 mph - N/A   Clear
5:55 AM 51.8 °F 51.8 °F 100% 29.95 in 6.2 mi Calm Calm - N/A   Partly Cloudy
6:55 AM 50.0 °F 50.0 °F 100% 29.98 in 6.2 mi NNE 3.5 mph - N/A   Partly Cloudy
7:00 AM 50 °F 50 °F 98% 29.98 in 6 mi NNE 3.5 mph - -  
7:55 AM 51.8 °F 51.8 °F 100% 30.01 in 6.2 mi Calm Calm - N/A   Scattered Clouds
8:55 AM 57.2 °F 53.6 °F 88% 30.04 in 6.2 mi ESE 3.5 mph - N/A   Mostly Cloudy
9:55 AM 60.8 °F 57.2 °F 88% 30.04 in 6.2 mi NE 2.3 mph - N/A   Mostly Cloudy
10:00 AM 61 °F 57 °F 81% 30.04 in 9 mi NE 2.3 mph - -   Partly Cloudy
10:55 AM 62.6 °F 57.2 °F 82% 30.04 in 6.2 mi Calm Calm - N/A   Partly Cloudy
11:55 AM 66.2 °F 53.6 °F 64% 30.04 in 6.2 mi SW 6.9 mph - N/A   Mostly Cloudy
12:55 PM 68.0 °F 55.4 °F 64% 30.01 in 6.2 mi WSW 11.5 mph - N/A   Scattered Clouds
1:00 PM 68 °F 55 °F 53% 30.03 in 12 mi WSW 11.5 mph - -  
1:55 PM 64.4 °F 53.6 °F 68% 30.01 in 6.2 mi WSW 13.8 mph - N/A   Mostly Cloudy
2:55 PM 64.4 °F 53.6 °F 68% 30.04 in 6.2 mi WSW 13.8 mph - N/A   Scattered Clouds
3:55 PM 62.6 °F 53.6 °F 72% 30.04 in 6.2 mi WSW 9.2 mph - N/A   Scattered Clouds
4:00 PM 62 °F 54 °F 68% 30.04 in 12 mi WSW 9.2 mph - -   Partly Cloudy
4:55 PM 60.8 °F 51.8 °F 72% 30.04 in 6.2 mi West 11.5 mph - N/A   Scattered Clouds
5:55 PM 59.0 °F 51.8 °F 77% 30.04 in 6.2 mi West 9.2 mph - N/A   Scattered Clouds
6:55 PM 59.0 °F 51.8 °F 77% 30.06 in 6.2 mi WSW 6.9 mph - N/A   Scattered Clouds
7:00 PM 59 °F 52 °F 71% 30.07 in 12 mi WSW 6.9 mph - -  
7:55 PM 59.0 °F 51.8 °F 77% 30.06 in 6.2 mi West 4.6 mph - N/A   Scattered Clouds
8:55 PM 59.0 °F 51.8 °F 77% 30.09 in 6.2 mi West 4.6 mph - N/A   Scattered Clouds
9:55 PM 59.0 °F 51.8 °F 77% 30.09 in 6.2 mi Calm Calm - N/A   Mostly Cloudy
10:00 PM 59 °F 52 °F 70% 30.10 in 12 mi Calm Calm - -   Scattered Clouds
10:55 PM 57.2 °F 53.6 °F 88% 30.09 in 6.2 mi SW 2.3 mph - N/A   Mostly Cloudy
11:55 PM 55.4 °F 55.4 °F 100% 30.09 in 6.2 mi East 3.5 mph - N/A   Mostly Cloudy